Location: Podia
(1.5569°N, 32.3469°E)
Time: 19:50:24
(UTC+00:00)

Hubble Space Telescope - Visible Passes

Search period start: 11 August 2020 00:00
Search period end: 21 August 2020 00:00
Orbit: 536 x 540 km, 28.5° (Epoch: 11 August)

Date Brightness Start Highest point End Pass type
(mag) Time Alt. Az. Time Alt. Az. Time Alt. Az.
17 Aug 2.7 16:45:15 10° S 16:47:28 14° SSE 16:48:08 14° SE visible
18 Aug 2.4 16:33:49 10° SSW 16:36:48 19° SSE 16:38:49 14° ESE visible
18 Aug 3.7 18:13:51 10° WSW 18:14:12 12° WSW 18:14:12 12° WSW visible
19 Aug 1.9 16:22:38 10° SSW 16:26:07 26° SSE 16:29:34 10° E visible
19 Aug 3.1 18:03:17 10° WSW 18:04:57 22° W 18:04:57 22° W visible
20 Aug 1.5 16:11:37 10° SW 16:15:26 36° SSE 16:19:14 10° E visible
20 Aug 2.6 17:52:50 10° W 17:55:43 29° NW 17:55:43 29° NW visible
